Location: *
(46.1333°S, 161.2167°W)
Time: 04:18:04
(UTC+00:00)

USA 234 - Pass Details

Date: 15 July 2020
Orbit: 1101 x 1106 km, 123.0° (Epoch: 09 August)

Event Time Altitude Azimuth Distance (km) Brightness Sun altitude
Rises 15:50:45 0° 68° (ENE) 3,934 7.4 -25.5°
Reaches altitude 10° 15:53:15 10° 71° (ENE) 2,980 6.5 -25.1°
Maximum altitude 15:59:45 65° 150° (SSE) 1,220 3.5 -23.9°
Enters shadow 16:02:52 33° 220° (SW) 1,791 4.0 -23.4°
